Tracking 18945 objects as of 20-Jan-2018
HD Live streaming from Space Station
objects crossing your sky now

FENGYUN 1C DEB

Track FENGYUN 1C DEB now!
10-day predictions


NORAD ID: 31387
Int'l Code: 1999-025BST
Perigee: 684.3 km
Apogee: 1,045.2 km
Inclination: 99.1 °
Period: 102.1 minutes
Semi major axis: 7235 km
RCS: 0.0046 m2 (small)
Launch date: May 10, 1999
Source: People's Republic of China (PRC)
Launch site: Taiyaun Space Center, China (TSC)

Note: This is SATELLITE DEBRIS
aabbcc
Your satellite tracking list
Your tracking list is empty




NASA's NSSDC Master Catalog

Two Line Element Set (TLE):
1 31387U 99025BST 18019.55879721 +.00000103 +00000-0 +64738-4 0  9996
2 31387 099.1018 140.1972 0249343 326.6836 090.6425 14.10511485557592
Source of the keplerian elements: AFSPC